GONETS-M 17

Last updated on Thu Oct 29 2020 00:02:02 GMT+0000 (Coordinated Universal Time)

1 46486U 20068A 20302.51281088 .00000010 00000-0 00000-0 0 9995 2 46486 82.5012 187.5020 0013039 195.3172 164.7517 12.41044285 3730
UTC large
Height (km)
Speed (km/s)
/
Latitude / Longitude
Inclination (degrees)
Orbital Period (minutes)
Azimuth
Elevation
Range (km)
Doppler Factor

Next 0 passes for location: London (51.5072 / 0.1276)

Sorry there are no passes over London.